TimeEST,TemperatureF,Dew PointF,Humidity,Sea Level PressureIn,VisibilityMPH,Wind Direction,Wind SpeedMPH,Gust SpeedMPH,PrecipitationIn,Events,Conditions,WindDirDegrees,DateUTC
12:15 AM,42.8,-9999,N/A,30.34,10.0,NE,4.6,-,N/A,,Clear,40,2012-11-18 05:15:00
12:35 AM,41.0,-9999,N/A,30.34,10.0,NE,5.8,-,N/A,,Clear,40,2012-11-18 05:35:00
12:55 AM,41.0,-9999,N/A,30.33,10.0,NE,5.8,-,N/A,,Clear,40,2012-11-18 05:55:00
1:15 AM,41.0,-9999,N/A,30.33,10.0,NE,4.6,-,N/A,,Clear,40,2012-11-18 06:15:00
1:35 AM,39.2,-9999,N/A,30.33,10.0,NE,6.9,-,N/A,,Mostly Cloudy,40,2012-11-18 06:35:00
1:55 AM,39.2,-9999,N/A,30.33,10.0,NE,6.9,-,N/A,,Scattered Clouds,40,2012-11-18 06:55:00
2:15 AM,41.0,-9999,N/A,30.32,10.0,NE,6.9,-,N/A,,Scattered Clouds,40,2012-11-18 07:15:00
2:55 AM,41.0,-9999,N/A,30.33,10.0,NE,5.8,-,N/A,,Clear,40,2012-11-18 07:55:00
3:15 AM,39.2,-9999,N/A,30.33,10.0,NE,4.6,-,N/A,,Clear,40,2012-11-18 08:15:00
3:35 AM,39.2,-9999,N/A,30.33,10.0,NNE,3.5,-,N/A,,Clear,30,2012-11-18 08:35:00
3:55 AM,37.4,-9999,N/A,30.33,10.0,NNE,6.9,-,N/A,,Clear,30,2012-11-18 08:55:00
4:15 AM,39.2,-9999,N/A,30.32,10.0,NNE,8.1,-,N/A,,Clear,30,2012-11-18 09:15:00
4:35 AM,41.0,-9999,N/A,30.32,10.0,NNE,5.8,-,N/A,,Clear,30,2012-11-18 09:35:00
4:55 AM,39.2,-9999,N/A,30.33,10.0,NE,5.8,-,N/A,,Clear,50,2012-11-18 09:55:00
5:15 AM,37.4,-9999,N/A,30.33,10.0,NNE,5.8,-,N/A,,Clear,30,2012-11-18 10:15:00
5:35 AM,37.4,-9999,N/A,30.33,10.0,NNE,5.8,-,N/A,,Clear,30,2012-11-18 10:35:00
5:55 AM,37.4,-9999,N/A,30.33,10.0,NNE,6.9,-,N/A,,Clear,30,2012-11-18 10:55:00
6:15 AM,37.4,-9999,N/A,30.34,10.0,NE,6.9,-,N/A,,Clear,40,2012-11-18 11:15:00
6:35 AM,39.2,-9999,N/A,30.34,10.0,NE,6.9,-,N/A,,Clear,40,2012-11-18 11:35:00
6:55 AM,37.4,-9999,N/A,30.35,10.0,NE,5.8,-,N/A,,Clear,40,2012-11-18 11:55:00
7:15 AM,37.4,-9999,N/A,30.36,10.0,NE,8.1,-,N/A,,Clear,40,2012-11-18 12:15:00
7:35 AM,39.2,-9999,N/A,30.36,10.0,NE,6.9,-,N/A,,Clear,50,2012-11-18 12:35:00
7:55 AM,41.0,-9999,N/A,30.36,10.0,NNE,6.9,-,N/A,,Clear,30,2012-11-18 12:55:00
8:15 AM,44.6,-9999,N/A,30.36,10.0,NE,8.1,-,N/A,,Clear,50,2012-11-18 13:15:00
8:35 AM,44.6,-9999,N/A,30.36,10.0,NE,10.4,-,N/A,,Clear,40,2012-11-18 13:35:00
8:55 AM,48.2,-9999,N/A,30.36,10.0,NE,9.2,-,N/A,,Clear,40,2012-11-18 13:55:00
9:15 AM,50.0,-9999,N/A,30.36,10.0,NE,13.8,-,N/A,,Clear,50,2012-11-18 14:15:00
9:35 AM,51.8,-9999,N/A,30.35,10.0,ENE,15.0,19.6,N/A,,Clear,60,2012-11-18 14:35:00
9:55 AM,53.6,-9999,N/A,30.35,10.0,NNE,11.5,17.3,N/A,,Clear,30,2012-11-18 14:55:00
10:15 AM,53.6,-9999,N/A,30.35,10.0,NE,9.2,-,N/A,,Clear,50,2012-11-18 15:15:00
10:35 AM,55.4,-9999,N/A,30.35,10.0,NE,10.4,-,N/A,,Clear,40,2012-11-18 15:35:00
10:55 AM,57.2,-9999,N/A,30.34,10.0,ENE,10.4,-,N/A,,Clear,70,2012-11-18 15:55:00
11:15 AM,59.0,-9999,N/A,30.34,10.0,NE,8.1,-,N/A,,Clear,40,2012-11-18 16:15:00
11:35 AM,60.8,-9999,N/A,30.33,10.0,NE,5.8,-,N/A,,Clear,40,2012-11-18 16:35:00
11:55 AM,60.8,-9999,N/A,30.32,10.0,NNE,3.5,-,N/A,,Clear,30,2012-11-18 16:55:00
12:15 PM,62.6,-9999,N/A,30.31,10.0,East,6.9,-,N/A,,Clear,80,2012-11-18 17:15:00
12:35 PM,62.6,-9999,N/A,30.30,10.0,NE,6.9,-,N/A,,Clear,50,2012-11-18 17:35:00
12:55 PM,64.4,-9999,N/A,30.29,10.0,NNE,9.2,-,N/A,,Clear,30,2012-11-18 17:55:00
1:15 PM,64.4,-9999,N/A,30.28,10.0,ENE,6.9,-,N/A,,Clear,70,2012-11-18 18:15:00
1:35 PM,64.4,-9999,N/A,30.28,10.0,NE,6.9,-,N/A,,Clear,40,2012-11-18 18:35:00
1:55 PM,66.2,-9999,N/A,30.27,10.0,NE,8.1,-,N/A,,Clear,50,2012-11-18 18:55:00
2:15 PM,66.2,-9999,N/A,30.26,10.0,NE,9.2,-,N/A,,Clear,40,2012-11-18 19:15:00
2:35 PM,68.0,-9999,N/A,30.27,10.0,NNE,5.8,-,N/A,,Clear,30,2012-11-18 19:35:00
2:55 PM,68.0,-9999,N/A,30.26,10.0,East,6.9,-,N/A,,Clear,80,2012-11-18 19:55:00
3:15 PM,68.0,-9999,N/A,30.26,10.0,NE,5.8,-,N/A,,Clear,50,2012-11-18 20:15:00
3:35 PM,68.0,-9999,N/A,30.26,10.0,ENE,8.1,-,N/A,,Clear,70,2012-11-18 20:35:00
3:55 PM,68.0,-9999,N/A,30.26,10.0,ENE,8.1,-,N/A,,Clear,70,2012-11-18 20:55:00
4:15 PM,68.0,-9999,N/A,30.26,10.0,NE,9.2,-,N/A,,Clear,50,2012-11-18 21:15:00
4:35 PM,66.2,-9999,N/A,30.27,10.0,ENE,6.9,-,N/A,,Clear,60,2012-11-18 21:35:00
4:55 PM,64.4,-9999,N/A,30.27,10.0,ENE,5.8,-,N/A,,Clear,60,2012-11-18 21:55:00
5:15 PM,62.6,-9999,N/A,30.27,10.0,NE,6.9,-,N/A,,Clear,40,2012-11-18 22:15:00
5:35 PM,60.8,-9999,N/A,30.28,10.0,NE,5.8,-,N/A,,Clear,50,2012-11-18 22:35:00
5:55 PM,57.2,15.8,20,30.28,10.0,ENE,5.8,-,N/A,,Clear,60,2012-11-18 22:55:00
6:15 PM,55.4,44.6,67,30.28,10.0,ENE,6.9,-,N/A,,Clear,60,2012-11-18 23:15:00
6:35 PM,53.6,44.6,72,30.28,10.0,NE,6.9,-,N/A,,Clear,50,2012-11-18 23:35:00
6:55 PM,53.6,44.6,72,30.28,10.0,NE,5.8,-,N/A,,Clear,50,2012-11-18 23:55:00
7:15 PM,55.4,44.6,67,30.29,10.0,NNE,4.6,-,N/A,,Clear,30,2012-11-19 00:15:00
7:35 PM,53.6,44.6,72,30.29,10.0,NNE,4.6,-,N/A,,Clear,30,2012-11-19 00:35:00
7:55 PM,53.6,44.6,72,30.30,10.0,NE,8.1,-,N/A,,Clear,50,2012-11-19 00:55:00
8:15 PM,51.8,46.4,82,30.31,10.0,NE,6.9,-,N/A,,Clear,40,2012-11-19 01:15:00
8:35 PM,51.8,46.4,82,30.31,10.0,NE,6.9,-,N/A,,Clear,40,2012-11-19 01:35:00
8:55 PM,51.8,46.4,82,30.31,10.0,NE,5.8,-,N/A,,Clear,40,2012-11-19 01:55:00
9:15 PM,51.8,46.4,82,30.31,10.0,NE,6.9,-,N/A,,Clear,40,2012-11-19 02:15:00
9:35 PM,50.0,46.4,87,30.31,10.0,NNE,5.8,-,N/A,,Clear,30,2012-11-19 02:35:00
9:55 PM,50.0,46.4,87,30.31,10.0,NNE,4.6,-,N/A,,Clear,30,2012-11-19 02:55:00
10:15 PM,50.0,46.4,87,30.31,10.0,NE,3.5,-,N/A,,Clear,40,2012-11-19 03:15:00
10:35 PM,50.0,44.6,82,30.31,10.0,NNE,3.5,-,N/A,,Clear,30,2012-11-19 03:35:00
10:55 PM,46.4,44.6,93,30.30,10.0,NNE,4.6,-,N/A,,Clear,30,2012-11-19 03:55:00
11:35 PM,46.4,44.6,93,30.30,10.0,NNE,5.8,-,N/A,,Clear,30,2012-11-19 04:35:00
11:55 PM,46.4,44.6,93,30.30,10.0,NNE,5.8,-,N/A,,Clear,20,2012-11-19 04:55:00